Regional Weather Roundup
Issued by NWS

Home | Current Version | Previous Version | Text Only | Print | Product List | Glossary Off
Versions: 1 2 3 4 5 6 7 8 9 10 11 12 13 14 15 16 17 18 19 20 21 22 23 24 25 26 27 28 29 30 31 32 33 34 35 36 37 38 39 40 41 42 43 44 45 46 47 48 49 50

039
ASUS45 KBOU 210510
RWRCO

WEATHER ROUNDUP FOR COLORADO
NATIONAL WEATHER SERVICE DENVER/BOULDER CO
1000 PM MST SAT JAN 20 2018

NOTE: "FAIR" INDICATES FEW OR NO CLOUDS BELOW 12000 FEET WITH NO
SIGNIFICANT WEATHER AND/OR OBSTRUCTIONS TO VISIBILITY.

COZ001>005-013-030-031-210600-
...NORTHWEST COLORADO...

CITY           SKY/WX    TMP DP  RH WIND       PRES   REMARKS
CRAIG          FLURRIES  28  23  81 SW13      29.74F WCI  17
HAYDEN         FLURRIES N/A N/A N/A W12       29.74R
MEEKER         LGT SNOW  28  26  92 SW7       29.75R FOG     WCI  21
RABBIT EARS PA HVY SNOW  21  19  93 W12G21    29.69R VSB 1/4 WCI   9
STEAMBOAT SPGS CLOUDY    27  26  98 S9        29.71R VSB 3/4 WCI  17
WALDEN         FAIR      30  27  86 E6        29.65F WCI  24
$$

COZ006>008-011-210600-
...WEST CENTRAL VALLEYS...

CITY           SKY/WX    TMP DP  RH WIND       PRES   REMARKS
GRAND JUNCTION MOCLDY    34  34 100 CALM      29.71F
MONTROSE       CLOUDY    38  25  59 E9        29.75F
EAGLE          FLURRIES  33  31  92 SW12      29.71R WCI  24
RIFLE          LGT RAIN  35  34  96 NW8       29.71F WCI  29
DELTA          CLOUDY    39  36  87 CALM      29.74S
NUCLA          CLOUDY    36  30  80 CALM      29.80R
$$

COZ017>023-064>068-210600-
...SOUTHWEST COLORADO...

CITY           SKY/WX    TMP DP  RH WIND       PRES   REMARKS
DURANGO        LGT SNOW  30  30 100 SW5       29.81R FOG     WCI  25
CORTEZ         CLOUDY    32  30  92 CALM      29.81R
PAGOSA SPRINGS LGT SNOW  31  31 100 SW22G36   29.77R VSB 3/4 WCI  18
TELLURIDE      FLURRIES  27  21  78 CALM      29.77S
WOLF CREEK PAS HVY SNOW  21  21 100 MISG      29.76F VSB 1/4
$$

COZ009-010-012-014-032>034-037-058>063-210600-
...CENTRAL COLORADO...

CITY           SKY/WX    TMP DP  RH WIND       PRES   REMARKS
ASPEN          LGT SNOW  33  31  92 VRB5      29.67R FOG     WCI  29
BUENA VISTA    CLOUDY    38  19  46 SE10G21   29.68S
COPPER MTN     NOT AVBL
BERTHOUD PASS  MOCLDY    18   7  62 S23G35    29.74F WCI   0
COTTONWOOD PAS   N/A     37  23  56 SE9G17    29.70F
GUNNISON       LGT SNOW  30  28  93 SW16G24   29.70S FOG     WCI  19
KREMMLING      CLOUDY    39  32  75 NE3       29.66F
LEADVILLE      CLOUDY    27  22  81 W3        29.68F
MONARCH PASS   FOG       21  21 100 SW21G26   29.84F VSB 1/4 WCI   6
SALIDA         CLOUDY    43  23  44 S9G17     29.75F
SUNLIGHT       HVY SNOW  21  19  93 MISG      29.71F VSB<1/4
WILKERSON PASS CLOUDY    28  18  64 SW9G20    29.78F WCI  20
$$

COZ069>075-210600-
...SAN LUIS VALLEY/SANGRE DE CRISTO MOUNTAINS...

CITY           SKY/WX    TMP DP  RH WIND       PRES   REMARKS
ALAMOSA        FAIR      30  22  72 S9        29.72F WCI  22
DEL NORTE      FAIR      30  26  84 S5        29.72F WCI  25
LA VETA PASS   FAIR      32  18  55 S20G43      N/A  WCI  20
SAGUACHE       FAIR      27  18  69 SE3       29.72F
$$

COZ035-036-038>040-210600-
...NORTHERN COLORADO FRONT RANGE...

CITY           SKY/WX    TMP DP  RH WIND       PRES   REMARKS
DENVER INTL AP CLOUDY    29  26  89 E6        29.82R WCI  23
DMNS CITY PARK NOT AVBL
AURORA         CLOUDY    28  28  99 NE6       29.80F WCI  22
FRONT RANGE AP CLOUDY    31  29  93 E6        29.82R WCI  25
ERIE MUNI ARPT CLOUDY    32  30  94 NE5       29.87F FOG     WCI  27
BOULDER MUN AP MIX PCPN  32  32 100 NE3       29.80F
CENTENNIAL     CLOUDY    29  27  92 NE5       29.79F WCI  24
BROOMFIELD     CLOUDY    30  28  93 NE8       29.81S FOG     WCI  23
FORT COLLINS   MIX PCPN  30  28  93 E8        29.83S FOG     WCI  23
LONGMONT       CLOUDY    34  31  90 NE5       29.84S FOG     WCI  29
$$

COZ041-046-047-076>085-087-088-210600-
...PIKES PEAK/PALMER DIVIDE AND SOUTHERN FOOTHILLS...

CITY           SKY/WX    TMP DP  RH WIND       PRES   REMARKS
COLO. SPRINGS  MOCLDY    31  24  75 NE9       29.74S WCI  23
A. F. ACADEMY  FAIR      29  24  83 N14       29.73F WCI  18
SCHRIEVER AFB  MOCLDY    28  26  93 N15G22    29.74R WCI  16
CHEYENNE MTN   MOCLDY    31  25  80 NW13      29.67S WCI  21
ELLICOTT         N/A    N/A N/A N/A NE16G22   29.73R
FALCON         CLOUDY    27  26  97 N17       29.75S WCI  14
FORT CARSON    CLOUDY    35  25  68 N15       29.72R WCI  25
LIMON          CLOUDY    27  27 100 N17G26    29.78R WCI  14
MONUMENT HILL  FOG       25  25 100 NE6       29.77F VSB<1/4 WCI  18
CANON CITY     MOCLDY    41  27  56 SE18G24   29.72R
WALSENBURG     FAIR      36  27  69 NE9       29.72R
TRINIDAD       FAIR      47  18  31 CALM      29.68S
$$

COZ042>045-048>051-090-091-210600-
...NORTHEAST COLORADO...

CITY           SKY/WX    TMP DP  RH WIND       PRES   REMARKS
GREELEY ARPT   NOT AVBL
AKRON          CLOUDY    29  27  92 NE15G21   29.81S WCI  18
BURLINGTON     FAIR      29  27  92 N14       29.76F WCI  18
WRAY           CLOUDY    32  30  93 N17       29.81F WCI  21
YUMA           CLOUDY    30  27  86 N15       29.81F WCI  19
STERLING       CLOUDY    32  28  86 NE6       29.83S WCI  26
HOLYOKE        CLOUDY    34  30  86 N14       29.83F WCI  24
FORT MORGAN    CLOUDY    30  25  80 NE14      29.83R WCI  20
$$

COZ086-089-092>099-210600-
...SOUTHEAST COLORADO...

CITY           SKY/WX    TMP DP  RH WIND       PRES   REMARKS
PUEBLO         FAIR      38  27  64 NE7       29.75R
LA JUNTA       FAIR      35  24  64 N7        29.74R WCI  29
LAMAR          FAIR      33  23  66 NE8       29.68F WCI  26
SPRINGFIELD      N/A     50  16  25 SW13      29.64F
$$




USA.gov is the U.S. government's official web portal to all federal, state and local government web resources and services.